User: anonymous   Login
Location: Unspecified
(0.0000°N, 0.0000°E)
Time: 05:04:17
(UTC+01:00)
Language:

ITAMSAT 1 - Orbit

View from above orbital plane
View from above orbital plane
View from above satellite
View from above satellite

Ground track
Ground track

The orbit data is extracted from the following two-line orbital elements,

1 22826U 93061D   14330.84898684  .00000221  00000-0  10286-3 0  5851
2 22826 098.6770 276.4065 0009333 166.5087 193.6347 14.30096740104169
Epoch (UTC): 26 November 2014 20:22:32
Eccentricity: 0.0009333
inclination: 98.6770°
perigee height: 785 km
apogee height: 798 km
right ascension of ascending node: 276.4065°
argument of perigee: 166.5087°
revolutions per day: 14.30096740
mean anomaly at epoch: 193.6347°
orbit number at epoch: 10416

The dashed part of the orbit path shows where the satellite is in the earth's shadow,  

DLR